Home > Weather > Pirmasens > Past weeks

Flag for Germany Weather for the Past 2 Weeks in Pirmasens, Rhineland-Palatinate, Germany

Now
40 °F

Partly cloudy.


Feels Like: 38 °F
Forecast: 29 / 36 °F
Wind: 3 mph from Southwest

Location: Ramstein

Current Time: Feb 14, 2016 at 10:16:32 PM

Latest Report: Feb 14, 2016 at 9:58 PM


Visibility: N/A

Pressure: 29.45 "Hg

Humidity: 95%

Dew point: 38 °F

Location of PirmasensLocation

Historic Weather in Pirmasens — Graph

°F

Pirmasens Temperature Yesterday

Maximum temperature yesterday: 45 °F (at 10:58 PM)
Minimum temperature yesterday: 32 °F (at 1:58 AM)
Average temperature yesterday: 39 °F

High & Low Weather Summary for the Past Weeks

 TemperatureHumidityPressure
High57 °F (Feb 6, 3:58 PM)100% (Jan 30, 8:00 PM)30.38 "Hg (Jan 30, 8:00 PM)
Low32 °F (Feb 5, 3:58 AM)55% (Feb 6, 3:58 PM)29.00 "Hg (Feb 13, 11:02 PM)
Average43 °F89%29.76 "Hg
* Reported Jan 30 8:00 PM — Feb 14 8:58 PM, Pirmasens, Weather by CustomWeather, © 2016

Note: Actual official high and low records may vary slightly from our data, if they occured in-between our weather recording intervals... More about our weather records

Advertising

Pirmasens Weather History for the Previous 24 Hours

 ConditionsComfort  
Time TempWeatherWind HumidityBarometerVisibility
8:58 PM
Sun, Feb 14
40 °FMostly cloudy.5 mph97%29.43 "HgN/A
7:58 PM40 °FPartly cloudy.5 mph96%29.40 "HgN/A
7:00 PM41 °FOvercast.5 mph93%29.35 "HgN/A
6:03 PM41 °FOvercast.5 mph93%29.32 "HgN/A
5:58 PM40 °FMostly cloudy.5 mph94%29.35 "HgN/A
5:01 PM41 °FLight rain. Mostly cloudy.5 mph87%29.29 "HgN/A
4:02 PM43 °FLight rain. Mostly cloudy.6 mph81%29.27 "HgN/A
3:58 PM43 °FMostly cloudy.5 mph81%29.28 "HgN/A
2:58 PM43 °FOvercast.10 mph78%29.26 "HgN/A
1:58 PM43 °FMostly cloudy.12 mph81%29.23 "HgN/A
12:58 PM43 °FMostly cloudy.13 mph81%29.22 "HgN/A
11:58 AM42 °FMostly cloudy.7 mph82%29.21 "HgN/A
11:03 AM43 °FScattered clouds.12 mph81%29.16 "HgN/A
10:58 AM41 °FPartly sunny.12 mph87%29.18 "HgN/A
9:58 AM43 °FOvercast.9 mph85%29.15 "HgN/A
8:58 AM41 °FScattered clouds.9 mph87%29.15 "HgN/A
8:04 AM43 °FMore clouds than sun.7 mph81%29.12 "HgN/A
7:58 AM43 °FOvercast.8 mph81%29.14 "HgN/A
7:01 AM43 °FOvercast.10 mph87%29.11 "HgN/A
6:58 AM43 °FMostly cloudy.9 mph86%29.13 "HgN/A
5:59 AM43 °FOvercast.17 mph93%29.07 "HgN/A
4:58 AM44 °FOvercast.20 mph93%29.08 "HgN/A
4:02 AM43 °FLight rain. Mostly cloudy.15 mph100%29.07 "HgN/A
3:04 AM45 °FLight rain. Mostly cloudy.15 mph93%29.05 "HgN/A
2:04 AM45 °FMostly cloudy.15 mph93%29.04 "HgN/A
1:59 AM45 °FOvercast.15 mph93%29.04 "HgN/A
12:58 AM45 °FLight rain. Mostly cloudy.16 mph94%29.04 "HgN/A
11:59 PM
Sat, Feb 13
45 °FLight rain. Mostly cloudy.14 mph93%29.00 "HgN/A
11:02 PM45 °FLight rain. Mostly cloudy.10 mph93%29.00 "HgN/A
10:58 PM45 °FLight rain. Overcast.13 mph93%29.03 "HgN/A
Weather by CustomWeather, © 2016

See weather overviewHow to use our weather pages